| time (UTC) | temp F | wind direction | speed MPH | gust MPH | rain 1hr in | rain 24hr in | rain mn in | humidity % | barometer mb |
| 20260831124526 | 73 | 326 | 0.0 | 1.0 | 0.00 | 0.01 | 0.00 | 88 | 1017.3 |
| 20260831123024 | 72 | 197 | 0.0 | 0.0 | 0.00 | 0.01 | 0.00 | 89 | 1017.3 |
| 20260831121524 | 72 | 197 | 0.0 | 2.0 | 0.00 | 0.01 | 0.00 | 89 | 1017.4 |
| 20260831120028 | 72 | 279 | 0.0 | 0.0 | 0.00 | 0.01 | 0.00 | 89 | 1017.5 |
| 20260831114532 | 72 | 277 | 0.0 | 0.0 | 0.00 | 0.01 | 0.00 | 88 | 1017.3 |
| 20260831113022 | 72 | 277 | 0.0 | 0.0 | 0.00 | 0.01 | 0.00 | 88 | 1017.5 |
| 20260831111521 | 72 | 278 | 0.0 | 0.0 | 0.00 | 0.01 | 0.00 | 87 | 1017.4 |
| 20260831110021 | 72 | 268 | 0.0 | 1.0 | 0.00 | 0.01 | 0.00 | 87 | 1017.3 |
| 20260831104520 | 72 | 61 | 0.0 | 0.0 | 0.00 | 0.01 | 0.00 | 87 | 1017.0 |
| 20260831103020 | 72 | 61 | 0.0 | 0.0 | 0.00 | 0.01 | 0.00 | 87 | 1016.8 |
| 20260831101526 | 72 | 61 | 0.0 | 0.0 | 0.00 | 0.01 | 0.00 | 87 | 1016.7 |
| 20260831100019 | 72 | 342 | 0.0 | 0.0 | 0.00 | 0.01 | 0.00 | 87 | 1016.7 |
| 20260831094519 | 72 | 342 | 0.0 | 0.0 | 0.00 | 0.01 | 0.00 | 86 | 1016.7 |
| 20260831093018 | 72 | 342 | 0.0 | 0.0 | 0.00 | 0.01 | 0.00 | 86 | 1016.7 |
| 20260831091517 | 72 | 342 | 0.0 | 0.0 | 0.00 | 0.01 | 0.00 | 85 | 1016.8 |
| 20260831090017 | 72 | 342 | 0.0 | 0.0 | 0.00 | 0.01 | 0.00 | 85 | 1016.9 |
| 20260831084517 | 72 | 335 | 0.0 | 0.0 | 0.00 | 0.01 | 0.00 | 85 | 1016.8 |
| 20260831083015 | 72 | 334 | 0.0 | 0.0 | 0.00 | 0.01 | 0.00 | 85 | 1016.8 |
| 20260831081514 | 72 | 333 | 0.0 | 2.0 | 0.00 | 0.01 | 0.00 | 85 | 1016.7 |
| 20260831080013 | 72 | 333 | 0.0 | 2.0 | 0.00 | 0.01 | 0.00 | 86 | 1016.8 |
| 20260831074512 | 71 | 360 | 0.0 | 0.0 | 0.00 | 0.01 | 0.00 | 87 | 1016.8 |
| 20260831073021 | 71 | 283 | 0.0 | 0.0 | 0.00 | 0.01 | 0.00 | 88 | 1016.8 |
| 20260831071508 | 71 | 283 | 0.0 | 0.0 | 0.00 | 0.01 | 0.00 | 89 | 1017.0 |
| 20260831070016 | 71 | 283 | 0.0 | 0.0 | 0.00 | 0.01 | 0.00 | 90 | 1017.1 |
| 20260831064508 | 71 | 126 | 0.0 | 0.0 | 0.00 | 0.01 | 0.00 | 90 | 1017.0 |
| 20260831063012 | 71 | 126 | 0.0 | 0.0 | 0.00 | 0.01 | 0.00 | 90 | 1017.3 |
| 20260831061503 | 71 | 126 | 0.0 | 0.0 | 0.00 | 0.01 | 0.00 | 90 | 1017.4 |
| 20260831060001 | 71 | 126 | 0.0 | 0.0 | 0.00 | 0.01 | 0.00 | 90 | 1017.4 |
| 20260831054601 | 71 | 126 | 0.0 | 0.0 | 0.00 | 0.01 | 0.00 | 90 | 1017.6 |
| 20260831053059 | 71 | 126 | 0.0 | 0.0 | 0.00 | 0.01 | 0.00 | 90 | 1017.6 |
| 20260831051617 | 72 | 126 | 0.0 | 0.0 | 0.00 | 0.01 | 0.00 | 89 | 1017.5 |
| 20260831050058 | 72 | 126 | 0.0 | 0.0 | 0.00 | 0.01 | 0.00 | 89 | 1017.5 |
| 20260831044558 | 72 | 34 | 0.0 | 0.0 | 0.00 | 0.01 | 0.00 | 89 | 1017.6 |
| 20260831043056 | 72 | 34 | 0.0 | 0.0 | 0.00 | 0.01 | 0.00 | 90 | 1017.7 |
| 20260831041600 | 72 | 33 | 0.0 | 0.0 | 0.00 | 0.01 | 0.00 | 90 | 1017.8 |
| 20260831040052 | 71 | 33 | 0.0 | 0.0 | 0.00 | 0.01 | 0.01 | 91 | 1017.7 |
| 20260831034551 | 71 | 33 | 0.0 | 0.0 | 0.00 | 0.01 | 0.01 | 91 | 1017.7 |
| 20260831033051 | 71 | 34 | 0.0 | 0.0 | 0.00 | 0.01 | 0.01 | 91 | 1017.8 |
| 20260831031550 | 71 | 34 | 0.0 | 0.0 | 0.00 | 0.01 | 0.01 | 91 | 1017.8 |
| 20260831030107 | 71 | 34 | 0.0 | 0.0 | 0.00 | 0.01 | 0.01 | 91 | 1018.1 |
| 20260831024614 | 71 | 33 | 0.0 | 0.0 | 0.00 | 0.01 | 0.01 | 90 | 1018.4 |
| 20260831023048 | 71 | 34 | 0.0 | 0.0 | 0.00 | 0.01 | 0.01 | 90 | 1018.6 |
| 20260831021548 | 72 | 34 | 0.0 | 0.0 | 0.00 | 0.01 | 0.01 | 90 | 1018.7 |
| 20260831020047 | 72 | 34 | 0.0 | 0.0 | 0.00 | 0.01 | 0.01 | 90 | 1018.6 |
| 20260831014547 | 72 | 34 | 0.0 | 0.0 | 0.00 | 0.01 | 0.01 | 90 | 1018.9 |
| 20260831013101 | 72 | 34 | 0.0 | 0.0 | 0.00 | 0.01 | 0.01 | 89 | 1018.9 |
| 20260831011545 | 72 | 34 | 0.0 | 0.0 | 0.00 | 0.01 | 0.01 | 89 | 1018.9 |
| 20260831010045 | 72 | 33 | 0.0 | 0.0 | 0.00 | 0.01 | 0.01 | 89 | 1018.9 |
| 20260831004545 | 72 | 34 | 0.0 | 0.0 | 0.00 | 0.01 | 0.01 | 88 | 1018.7 |
| 20260831003044 | 72 | 33 | 0.0 | 0.0 | 0.00 | 0.01 | 0.01 | 88 | 1018.7 |
| 20260831001543 | 73 | 34 | 0.0 | 0.0 | 0.00 | 0.01 | 0.01 | 88 | 1018.7 |
| 20260831000043 | 73 | 34 | 0.0 | 0.0 | 0.00 | 0.01 | 0.01 | 87 | 1018.6 |
| 20260830234542 | 73 | 34 | 0.0 | 0.0 | 0.00 | 0.01 | 0.01 | 86 | 1018.4 |
| 20260830233042 | 74 | 34 | 0.0 | 0.0 | 0.00 | 0.01 | 0.01 | 86 | 1018.2 |
| 20260830231542 | 74 | 33 | 0.0 | 0.0 | 0.00 | 0.01 | 0.01 | 85 | 1017.9 |
| 20260830230041 | 74 | 33 | 0.0 | 0.0 | 0.00 | 0.01 | 0.01 | 84 | 1017.5 |
| 20260830224543 | 75 | 34 | 0.0 | 0.0 | 0.00 | 0.01 | 0.01 | 83 | 1017.5 |
| 20260830223040 | 75 | 34 | 0.0 | 0.0 | 0.00 | 0.01 | 0.01 | 80 | 1017.3 |
| 20260830221545 | 75 | 33 | 0.0 | 1.0 | 0.00 | 0.01 | 0.01 | 80 | 1016.9 |
| 20260830220039 | 75 | 309 | 0.0 | 1.0 | 0.00 | 0.01 | 0.01 | 79 | 1016.7 |
| 20260830214540 | 75 | 299 | 0.0 | 5.0 | 0.00 | 0.01 | 0.01 | 79 | 1017.0 |
| 20260830213036 | 76 | 335 | 0.0 | 0.0 | 0.00 | 0.01 | 0.01 | 81 | 1016.5 |
| 20260830211534 | 75 | 333 | 0.0 | 0.0 | 0.00 | 0.01 | 0.01 | 82 | 1017.2 |
| 20260830210032 | 75 | 335 | 0.0 | 0.0 | 0.00 | 0.01 | 0.01 | 83 | 1017.4 |
| 20260830204532 | 75 | 338 | 0.0 | 0.0 | 0.00 | 0.01 | 0.01 | 83 | 1017.4 |
| 20260830203037 | 74 | 327 | 0.0 | 0.0 | 0.01 | 0.01 | 0.01 | 83 | 1017.5 |
| 20260830201541 | 74 | 304 | 0.0 | 1.0 | 0.01 | 0.01 | 0.01 | 83 | 1017.5 |
| 20260830200028 | 74 | 300 | 0.0 | 0.0 | 0.01 | 0.01 | 0.01 | 84 | 1017.5 |
| 20260830194525 | 74 | 300 | 0.0 | 0.0 | 0.01 | 0.01 | 0.01 | 84 | 1018.0 |
| 20260830193023 | 74 | 300 | 0.0 | 1.0 | 0.00 | 0.00 | 0.00 | 82 | 1018.4 |
| 20260830191525 | 75 | 290 | 0.0 | 0.0 | 0.00 | 0.00 | 0.00 | 81 | 1018.4 |
| 20260830190030 | 75 | 290 | 0.0 | 0.0 | 0.00 | 0.00 | 0.00 | 81 | 1018.8 |
| 20260830184521 | 75 | 274 | 0.0 | 0.0 | 0.00 | 0.00 | 0.00 | 79 | 1019.3 |
| 20260830183019 | 75 | 273 | 0.0 | 0.0 | 0.00 | 0.00 | 0.00 | 79 | 1019.5 |
| 20260830181519 | 75 | 265 | 0.0 | 0.0 | 0.00 | 0.00 | 0.00 | 79 | 1019.6 |
| 20260830180017 | 75 | 304 | 0.0 | 0.0 | 0.00 | 0.00 | 0.00 | 78 | 1019.7 |
| 20260830174517 | 75 | 278 | 0.0 | 0.0 | 0.00 | 0.00 | 0.00 | 81 | 1019.6 |
| 20260830173014 | 74 | 277 | 0.0 | 0.0 | 0.00 | 0.00 | 0.00 | 80 | 1019.7 |
| 20260830171513 | 74 | 277 | 0.0 | 0.0 | 0.00 | 0.00 | 0.00 | 80 | 1019.9 |
| 20260830170012 | 74 | 254 | 0.0 | 0.0 | 0.00 | 0.00 | 0.00 | 81 | 1020.1 |
| 20260830164526 | 73 | 257 | 0.0 | 0.0 | 0.00 | 0.00 | 0.00 | 82 | 1020.4 |
| 20260830163010 | 73 | 233 | 0.0 | 1.0 | 0.00 | 0.00 | 0.00 | 83 | 1020.7 |
| 20260830161508 | 73 | 263 | 0.0 | 1.0 | 0.00 | 0.00 | 0.00 | 86 | 1020.6 |
| 20260830160013 | 72 | 283 | 0.0 | 0.0 | 0.00 | 0.00 | 0.00 | 86 | 1020.6 |
| 20260830154506 | 72 | 284 | 0.0 | 0.0 | 0.00 | 0.00 | 0.00 | 85 | 1020.6 |
| 20260830153004 | 72 | 318 | 0.0 | 0.0 | 0.00 | 0.00 | 0.00 | 86 | 1020.5 |
| 20260830151502 | 72 | 318 | 0.0 | 0.0 | 0.00 | 0.00 | 0.00 | 85 | 1020.3 |
| 20260830150002 | 72 | 318 | 0.0 | 0.0 | 0.00 | 0.00 | 0.00 | 85 | 1020.0 |
| 20260830144603 | 71 | 319 | 0.0 | 0.0 | 0.00 | 0.00 | 0.00 | 84 | 1019.8 |
| 20260830143103 | 71 | 319 | 0.0 | 0.0 | 0.00 | 0.00 | 0.00 | 84 | 1019.7 |
| 20260830141600 | 71 | 319 | 0.0 | 0.0 | 0.00 | 0.00 | 0.00 | 84 | 1019.6 |
| 20260830140056 | 71 | 319 | 0.0 | 0.0 | 0.00 | 0.00 | 0.00 | 82 | 1019.6 |
| 20260830134556 | 71 | 318 | 0.0 | 0.0 | 0.00 | 0.00 | 0.00 | 80 | 1019.3 |
| 20260830133136 | 71 | 319 | 0.0 | 0.0 | 0.00 | 0.00 | 0.00 | 78 | 1019.0 |
| 20260830131612 | 71 | 318 | 0.0 | 0.0 | 0.00 | 0.00 | 0.00 | 78 | 1018.7 |
| 20260830130052 | 70 | 318 | 0.0 | 0.0 | 0.00 | 0.00 | 0.00 | 79 | 1018.8 |